Time,TemperatureF,DewpointF,PressureIn,WindDirection,WindDirectionDegrees,WindSpeedMPH,WindSpeedGustMPH,Humidity,HourlyPrecipIn,Conditions,Clouds,dailyrainin,SolarRadiationWatts/m^2,SoftwareType,DateUTC
2013-05-18 00:07:00,74.5,70.0,30.02,SE,138,1.0,4.0,86,0.00,,,0.00,0,weatherlink.com 1.10,2013-05-18 04:07:00,
2013-05-18 00:22:00,74.3,70.0,30.02,SE,146,0.0,3.0,85,0.00,,,0.00,0,weatherlink.com 1.10,2013-05-18 04:22:00,
2013-05-18 00:37:00,74.0,70.0,30.01,ESE,103,0.0,3.0,86,0.00,,,0.00,0,weatherlink.com 1.10,2013-05-18 04:37:00,
2013-05-18 00:52:00,73.9,70.0,30.01,ESE,106,0.0,4.0,86,0.00,,,0.00,0,weatherlink.com 1.10,2013-05-18 04:52:00,
2013-05-18 01:07:00,73.9,70.0,30.00,ESE,105,0.0,4.0,86,0.00,,,0.00,0,weatherlink.com 1.10,2013-05-18 05:07:00,
2013-05-18 01:22:00,73.7,69.0,30.00,ESE,105,0.0,3.0,86,0.00,,,0.00,0,weatherlink.com 1.10,2013-05-18 05:22:00,
2013-05-18 01:37:00,73.5,69.0,30.00,ESE,105,0.0,0.0,86,0.00,,,0.00,0,weatherlink.com 1.10,2013-05-18 05:37:00,
2013-05-18 01:52:00,73.2,69.0,30.00,ESE,105,0.0,1.0,87,0.00,,,0.00,0,weatherlink.com 1.10,2013-05-18 05:52:00,
2013-05-18 02:07:00,72.8,69.0,30.00,ESE,105,0.0,2.0,88,0.00,,,0.00,0,weatherlink.com 1.10,2013-05-18 06:07:00,
2013-05-18 02:22:00,72.4,69.0,30.00,ESE,105,0.0,1.0,88,0.00,,,0.00,0,weatherlink.com 1.10,2013-05-18 06:22:00,
2013-05-18 02:37:00,72.4,69.0,30.00,ESE,105,0.0,1.0,88,0.00,,,0.00,0,weatherlink.com 1.10,2013-05-18 06:37:00,
2013-05-18 02:52:00,72.3,69.0,30.00,ESE,105,0.0,0.0,88,0.00,,,0.00,0,weatherlink.com 1.10,2013-05-18 06:52:00,
2013-05-18 03:07:00,72.3,68.0,30.00,ESE,105,0.0,0.0,87,0.00,,,0.00,0,weatherlink.com 1.10,2013-05-18 07:07:00,
2013-05-18 03:22:00,72.3,68.0,30.00,ESE,105,0.0,0.0,87,0.00,,,0.00,0,weatherlink.com 1.10,2013-05-18 07:22:00,
2013-05-18 03:37:00,72.3,68.0,30.00,ESE,105,0.0,0.0,87,0.00,,,0.00,0,weatherlink.com 1.10,2013-05-18 07:37:00,
2013-05-18 03:52:00,71.8,68.0,30.00,ESE,105,0.0,2.0,88,0.00,,,0.00,0,weatherlink.com 1.10,2013-05-18 07:52:00,
2013-05-18 04:07:00,71.7,68.0,30.00,ESE,105,0.0,0.0,88,0.00,,,0.00,0,weatherlink.com 1.10,2013-05-18 08:07:00,
2013-05-18 04:22:00,71.5,68.0,30.00,ESE,105,0.0,1.0,88,0.00,,,0.00,0,weatherlink.com 1.10,2013-05-18 08:22:00,
2013-05-18 04:37:00,71.5,68.0,30.00,ESE,105,0.0,1.0,89,0.00,,,0.00,0,weatherlink.com 1.10,2013-05-18 08:37:00,
2013-05-18 04:52:00,71.1,68.0,30.00,ESE,105,0.0,1.0,89,0.00,,,0.00,0,weatherlink.com 1.10,2013-05-18 08:52:00,
2013-05-18 05:07:00,70.5,68.0,30.00,ESE,105,1.0,1.0,91,0.00,,,0.00,0,weatherlink.com 1.10,2013-05-18 09:07:00,
2013-05-18 05:22:00,70.3,68.0,30.01,ESE,105,0.0,2.0,92,0.00,,,0.00,0,weatherlink.com 1.10,2013-05-18 09:22:00,
2013-05-18 05:37:00,70.2,68.0,30.00,ESE,105,0.0,0.0,92,0.00,,,0.00,0,weatherlink.com 1.10,2013-05-18 09:37:00,
2013-05-18 05:52:00,70.2,68.0,30.01,WNW,297,0.0,1.0,93,0.00,,,0.00,5,weatherlink.com 1.10,2013-05-18 09:52:00,
2013-05-18 06:07:00,70.2,68.0,30.01,WNW,297,0.0,0.0,93,0.00,,,0.00,14,weatherlink.com 1.10,2013-05-18 10:07:00,
2013-05-18 06:22:00,70.3,68.0,30.02,WNW,297,0.0,1.0,92,0.00,,,0.00,26,weatherlink.com 1.10,2013-05-18 10:22:00,
2013-05-18 06:37:00,70.5,68.0,30.02,WNW,297,0.0,0.0,92,0.00,,,0.00,88,weatherlink.com 1.10,2013-05-18 10:37:00,
2013-05-18 06:52:00,71.6,69.0,30.02,WNW,297,0.0,1.0,90,0.00,,,0.00,142,weatherlink.com 1.10,2013-05-18 10:52:00,
2013-05-18 07:07:00,72.6,69.0,30.02,WNW,297,0.0,1.0,88,0.00,,,0.00,192,weatherlink.com 1.10,2013-05-18 11:07:00,
2013-05-18 07:22:00,74.0,70.0,30.03,WNW,297,0.0,2.0,88,0.00,,,0.00,244,weatherlink.com 1.10,2013-05-18 11:22:00,
2013-05-18 07:37:00,75.5,70.0,30.03,NE,46,0.0,1.0,84,0.00,,,0.00,297,weatherlink.com 1.10,2013-05-18 11:37:00,
2013-05-18 07:53:00,76.1,69.0,30.03,East,80,0.0,2.0,78,0.00,,,0.00,355,weatherlink.com 1.10,2013-05-18 11:53:00,
2013-05-18 08:08:00,77.0,69.0,30.03,East,80,0.0,1.0,76,0.00,,,0.00,406,weatherlink.com 1.10,2013-05-18 12:08:00,
2013-05-18 08:23:00,78.3,70.0,30.03,East,80,0.0,1.0,75,0.00,,,0.00,459,weatherlink.com 1.10,2013-05-18 12:23:00,
2013-05-18 08:38:00,79.9,71.0,30.03,East,80,0.0,3.0,74,0.00,,,0.00,512,weatherlink.com 1.10,2013-05-18 12:38:00,
2013-05-18 08:53:00,81.1,70.0,30.03,NE,53,4.0,7.0,69,0.00,,,0.00,605,weatherlink.com 1.10,2013-05-18 12:53:00,
2013-05-18 09:08:00,78.2,69.0,30.03,ENE,59,0.0,6.0,74,0.00,,,0.00,239,weatherlink.com 1.10,2013-05-18 13:08:00,
2013-05-18 09:23:00,79.2,70.0,30.03,ENE,59,0.0,4.0,74,0.00,,,0.00,193,weatherlink.com 1.10,2013-05-18 13:23:00,
2013-05-18 09:38:00,79.6,71.0,30.03,NE,45,4.0,4.0,74,0.00,,,0.00,216,weatherlink.com 1.10,2013-05-18 13:38:00,
2013-05-18 09:53:00,80.7,71.0,30.03,NE,45,0.0,4.0,71,0.00,,,0.00,197,weatherlink.com 1.10,2013-05-18 13:53:00,
2013-05-18 10:08:00,80.9,70.0,30.02,NE,44,1.0,3.0,70,0.00,,,0.00,257,weatherlink.com 1.10,2013-05-18 14:08:00,
2013-05-18 10:23:00,82.9,72.0,30.02,South,170,0.0,3.0,69,0.00,,,0.00,949,weatherlink.com 1.10,2013-05-18 14:23:00,
2013-05-18 10:38:00,84.7,71.0,30.02,East,82,3.0,6.0,64,0.00,,,0.00,972,weatherlink.com 1.10,2013-05-18 14:38:00,
2013-05-18 10:53:00,83.9,69.0,30.01,ENE,62,4.0,10.0,62,0.00,,,0.00,1030,weatherlink.com 1.10,2013-05-18 14:53:00,
2013-05-18 11:08:00,84.3,71.0,30.01,NE,42,4.0,8.0,65,0.00,,,0.00,1060,weatherlink.com 1.10,2013-05-18 15:08:00,
2013-05-18 11:23:00,84.7,70.0,30.01,ESE,103,0.0,9.0,62,0.00,,,0.00,1034,weatherlink.com 1.10,2013-05-18 15:23:00,
2013-05-18 11:38:00,84.6,70.0,30.00,SE,132,2.0,11.0,62,0.00,,,0.00,993,weatherlink.com 1.10,2013-05-18 15:38:00,
2013-05-18 11:53:00,84.0,70.0,30.00,ESE,116,0.0,9.0,62,0.00,,,0.00,1051,weatherlink.com 1.10,2013-05-18 15:53:00,
2013-05-18 12:08:00,87.0,72.0,30.00,ENE,77,0.0,5.0,61,0.00,,,0.00,1002,weatherlink.com 1.10,2013-05-18 16:08:00,
2013-05-18 12:23:00,85.5,69.0,29.99,ENE,58,2.0,9.0,59,0.00,,,0.00,1074,weatherlink.com 1.10,2013-05-18 16:23:00,
2013-05-18 12:38:00,84.9,70.0,29.98,ESE,105,8.0,9.0,61,0.00,,,0.00,1030,weatherlink.com 1.10,2013-05-18 16:38:00,
2013-05-18 12:55:00,84.2,71.0,29.98,SE,127,2.0,12.0,64,0.00,,,0.00,211,weatherlink.com 1.10,2013-05-18 16:55:00,
2013-05-18 13:09:00,85.6,72.0,29.98,SSE,156,2.0,13.0,63,0.00,,,0.00,1007,weatherlink.com 1.10,2013-05-18 17:09:00,
2013-05-18 13:25:00,85.2,70.0,29.98,East,89,9.0,14.0,60,0.00,,,0.00,1039,weatherlink.com 1.10,2013-05-18 17:25:00,
2013-05-18 13:54:00,85.9,72.0,29.97,East,82,5.0,7.0,63,0.00,,,0.00,199,weatherlink.com 1.10,2013-05-18 17:54:00,
2013-05-18 14:09:00,84.1,70.0,29.97,ESE,103,2.0,10.0,63,0.00,,,0.00,309,weatherlink.com 1.10,2013-05-18 18:09:00,
2013-05-18 14:24:00,85.8,72.0,29.96,ENE,72,2.0,12.0,63,0.00,,,0.00,1000,weatherlink.com 1.10,2013-05-18 18:24:00,
2013-05-18 14:39:00,84.0,72.0,29.96,South,190,2.0,15.0,67,0.00,,,0.00,1051,weatherlink.com 1.10,2013-05-18 18:39:00,
2013-05-18 14:54:00,83.4,71.0,29.96,East,90,5.0,8.0,67,0.00,,,0.00,911,weatherlink.com 1.10,2013-05-18 18:54:00,
2013-05-18 15:09:00,83.7,71.0,29.96,ESE,103,2.0,10.0,66,0.00,,,0.00,919,weatherlink.com 1.10,2013-05-18 19:09:00,
2013-05-18 15:24:00,83.2,72.0,29.95,ENE,61,4.0,10.0,68,0.00,,,0.00,246,weatherlink.com 1.10,2013-05-18 19:24:00,
2013-05-18 15:39:00,82.7,71.0,29.95,ENE,69,3.0,9.0,68,0.00,,,0.00,777,weatherlink.com 1.10,2013-05-18 19:39:00,
2013-05-18 15:54:00,82.5,71.0,29.95,ENE,69,2.0,11.0,69,0.00,,,0.00,279,weatherlink.com 1.10,2013-05-18 19:54:00,
2013-05-18 16:09:00,83.7,72.0,29.95,NE,34,0.0,5.0,67,0.00,,,0.00,265,weatherlink.com 1.10,2013-05-18 20:09:00,
2013-05-18 16:24:00,81.6,71.0,29.95,SE,128,2.0,9.0,71,0.00,,,0.00,153,weatherlink.com 1.10,2013-05-18 20:24:00,
2013-05-18 16:39:00,82.6,71.0,29.95,East,81,7.0,8.0,69,0.00,,,0.00,517,weatherlink.com 1.10,2013-05-18 20:39:00,
2013-05-18 16:54:00,82.9,72.0,29.95,East,93,2.0,7.0,69,0.00,,,0.00,91,weatherlink.com 1.10,2013-05-18 20:54:00,
2013-05-18 17:09:00,80.2,71.0,29.96,SE,134,7.0,8.0,73,0.00,,,0.00,60,weatherlink.com 1.10,2013-05-18 21:09:00,
2013-05-18 17:24:00,79.7,71.0,29.96,ENE,76,0.0,4.0,74,0.00,,,0.00,46,weatherlink.com 1.10,2013-05-18 21:24:00,
2013-05-18 17:39:00,79.4,71.0,29.96,SSE,157,0.0,7.0,75,0.00,,,0.00,51,weatherlink.com 1.10,2013-05-18 21:39:00,
2013-05-18 17:54:00,79.1,71.0,29.97,East,83,3.0,9.0,75,0.00,,,0.00,44,weatherlink.com 1.10,2013-05-18 21:54:00,
2013-05-18 18:09:00,78.9,71.0,29.97,ESE,122,0.0,7.0,77,0.00,,,0.00,56,weatherlink.com 1.10,2013-05-18 22:09:00,
2013-05-18 18:24:00,78.4,71.0,29.97,ESE,118,4.0,8.0,79,0.00,,,0.00,37,weatherlink.com 1.10,2013-05-18 22:24:00,
2013-05-18 18:39:00,78.0,71.0,29.97,NE,36,1.0,5.0,80,0.00,,,0.00,12,weatherlink.com 1.10,2013-05-18 22:39:00,
2013-05-18 18:54:00,77.3,71.0,29.98,East,86,0.0,10.0,82,0.00,,,0.00,0,weatherlink.com 1.10,2013-05-18 22:54:00,
2013-05-18 19:09:00,76.9,71.0,29.98,ESE,113,0.0,5.0,83,0.00,,,0.00,0,weatherlink.com 1.10,2013-05-18 23:09:00,
2013-05-18 19:24:00,76.5,71.0,29.99,ESE,111,1.0,4.0,84,0.00,,,0.00,0,weatherlink.com 1.10,2013-05-18 23:24:00,
2013-05-18 19:39:00,76.2,71.0,29.99,ESE,115,1.0,7.0,84,0.00,,,0.00,0,weatherlink.com 1.10,2013-05-18 23:39:00,
2013-05-18 19:54:00,75.9,71.0,29.99,ESE,106,0.0,5.0,85,0.00,,,0.00,0,weatherlink.com 1.10,2013-05-18 23:54:00,
2013-05-18 20:09:00,75.8,71.0,30.00,ESE,106,0.0,4.0,85,0.00,,,0.00,0,weatherlink.com 1.10,2013-05-19 00:09:00,
2013-05-18 20:24:00,75.6,71.0,30.00,ESE,106,0.0,1.0,86,0.00,,,0.00,0,weatherlink.com 1.10,2013-05-19 00:24:00,
2013-05-18 20:40:00,75.6,71.0,30.00,ESE,106,0.0,2.0,86,0.00,,,0.00,0,weatherlink.com 1.10,2013-05-19 00:40:00,
2013-05-18 20:55:00,75.6,71.0,30.00,ESE,106,0.0,1.0,86,0.00,,,0.00,0,weatherlink.com 1.10,2013-05-19 00:55:00,
2013-05-18 21:10:00,75.5,71.0,30.00,ESE,106,0.0,2.0,86,0.00,,,0.00,0,weatherlink.com 1.10,2013-05-19 01:10:00,
2013-05-18 21:25:00,75.3,71.0,30.00,ESE,106,0.0,3.0,86,0.00,,,0.00,0,weatherlink.com 1.10,2013-05-19 01:25:00,
2013-05-18 21:40:00,75.3,71.0,30.00,ESE,106,0.0,2.0,87,0.00,,,0.00,0,weatherlink.com 1.10,2013-05-19 01:40:00,
2013-05-18 21:55:00,75.2,71.0,30.00,ESE,106,0.0,2.0,87,0.00,,,0.00,0,weatherlink.com 1.10,2013-05-19 01:55:00,
2013-05-18 22:10:00,75.3,71.0,30.00,SE,130,1.0,5.0,87,0.00,,,0.00,0,weatherlink.com 1.10,2013-05-19 02:10:00,
2013-05-18 22:25:00,75.2,71.0,30.00,ESE,112,4.0,4.0,87,0.00,,,0.00,0,weatherlink.com 1.10,2013-05-19 02:25:00,
2013-05-18 22:40:00,75.1,71.0,30.00,East,96,0.0,4.0,88,0.00,,,0.00,0,weatherlink.com 1.10,2013-05-19 02:40:00,
2013-05-18 22:55:00,75.0,71.0,30.01,East,82,0.0,5.0,87,0.00,,,0.00,0,weatherlink.com 1.10,2013-05-19 02:55:00,
2013-05-18 23:10:00,75.3,71.0,30.01,ESE,115,0.0,7.0,85,0.00,,,0.00,0,weatherlink.com 1.10,2013-05-19 03:10:00,
2013-05-18 23:25:00,75.4,71.0,30.00,SSE,151,0.0,5.0,85,0.00,,,0.00,0,weatherlink.com 1.10,2013-05-19 03:25:00,
2013-05-18 23:40:00,75.2,71.0,30.00,East,101,3.0,3.0,85,0.00,,,0.00,0,weatherlink.com 1.10,2013-05-19 03:40:00,
2013-05-18 23:55:00,75.0,70.0,30.00,East,98,1.0,5.0,84,0.00,,,0.00,0,weatherlink.com 1.10,2013-05-19 03:55:00,